Clear Lake, IA

6:00 PM CDT on July 28, 2016 (GMT -0500)
Mason City Municipal

Weather History for KMCW - January, 2014

Change the Weather History Date:

Sunday, January 26, 2014

  Actual Average Record
Temperature  
Mean Temperature 12 °F 16 °F  
Max Temperature 28 °F 25 °F 62 °F (2002)
Min Temperature -5 °F 7 °F -26 °F (1930)
Degree Days  
Heating Degree Days 53 49  
Month to date heating degree days 1423 1274  
Since 1 July heating degree days 4667 4363  
Cooling Degree Days 0 0  
Month to date cooling degree days 0 0  
Year to date cooling degree days 0 0  
Moisture  
Dew Point 9 °F    
Average Humidity 85    
Maximum Humidity 96    
Minimum Humidity 74    
Precipitation  
Precipitation 0.10 in 0.03 in 0.45 in (1994)
Month to date precipitation 0.51 0.68  
Year to date precipitation 0.51 0.68  
Snow  
Snow 1.50 in 0.40 in 7.00 in (1996)
Month to date snowfall 8.5 9.0  
Since 1 July snowfall 24.9 23.0  
Snow Depth 7.00 in    
Sea Level Pressure  
Sea Level Pressure 29.66 in    
Wind  
Wind Speed 28 mph (NW)    
Max Wind Speed 47 mph    
Max Gust Speed 57 mph    
Visibility 3 miles    
Events Fog , Snow    
T = Trace of Precipitation, MM = Missing Value Source: NWS Daily Summary

Daily Weather History Graph

Daily Weather History Graph

Search for Another Location

Airport or City:

Trip Planner

Search our weather history database for the weather conditions in past years. The results will help you decide how hot, cold, wet, or windy it might be!

Date:

Astronomy

Jan. 26, 2014 Rise Set
Actual Time 7:34 AM CST 5:17 PM CST
Civil Twilight 7:03 AM CST 5:48 PM CST
Nautical Twilight 6:29 AM CST 6:22 PM CST
Astronomical Twilight 5:55 AM CST 6:56 PM CST
Moon 3:13 AM CST (1/26) 1:06 PM CST (1/26)
Length of Visible Light 10h 44m
Length of Day
9h 43m
Waning Crescent, 23% of the Moon is Illuminated
Jan 26
Waning Crescent
Jan 30
New
Feb 6
First Quarter
Feb 14
Full
Feb 22
Last Quarter

Hourly Weather History & Observations

Time (CST) Temp. Windchill Dew Point Humidity Pressure Visibility Wind Dir Wind Speed Gust Speed Precip Events Conditions
12:29 AM 14.0 °F -3.0 °F 10.9 °F 88% 29.46 in 2.0 mi SE 18.4 mph - 0.01 in Snow Light Snow
12:40 AM 14.0 °F -3.4 °F 12.0 °F 92% 29.44 in 4.0 mi SSE 19.6 mph 25.3 mph 0.01 in Snow Light Snow
12:53 AM 14.0 °F -3.0 °F 12.0 °F 92% 29.48 in 2.5 mi SSE 18.4 mph 25.3 mph 0.01 in Snow Light Snow
1:00 AM 15.1 °F -2.0 °F 12.0 °F 88% 29.42 in 3.0 mi SSE 19.6 mph - 0.00 in Snow Light Snow
1:07 AM 15.1 °F -1.6 °F 12.0 °F 88% 29.41 in 4.0 mi SSE 18.4 mph - 0.00 in Snow Light Snow
1:15 AM 15.1 °F -2.9 °F 12.9 °F 91% 29.41 in 4.0 mi SSE 21.9 mph - 0.00 in Snow Light Snow
1:29 AM 15.1 °F -3.7 °F 12.9 °F 91% 29.39 in 4.0 mi SSE 24.2 mph - 0.00 in Snow Light Snow
1:53 AM 16.0 °F -0.9 °F 12.9 °F 88% 29.42 in 10.0 mi SSE 19.6 mph 24.2 mph 0.00 in   Overcast
2:53 AM 17.1 °F 2.5 °F 12.9 °F 84% 29.41 in 10.0 mi SSE 15.0 mph - N/A   Overcast
3:11 AM 17.1 °F 5.8 °F 12.9 °F 84% 29.37 in 10.0 mi South 9.2 mph - N/A   Overcast
3:53 AM 18.0 °F 11.1 °F 14.0 °F 84% 29.41 in 10.0 mi South 4.6 mph - N/A   Overcast
4:44 AM 28.0 °F 11.3 °F 24.1 °F 85% 29.37 in 2.5 mi WNW 34.5 mph 43.7 mph 0.00 in   Overcast
4:53 AM 28.0 °F 12.0 °F 25.0 °F 88% 29.41 in 1.8 mi WNW 31.1 mph 41.4 mph 0.00 in   Overcast
5:04 AM 28.0 °F 12.5 °F 24.1 °F 85% 29.38 in 2.5 mi WNW 28.8 mph 40.3 mph 0.00 in   Overcast
5:11 AM 28.0 °F 13.0 °F 24.1 °F 85% 29.38 in 4.0 mi WNW 26.5 mph 36.8 mph 0.00 in   Overcast
5:53 AM 26.1 °F 10.1 °F 21.9 °F 84% 29.45 in 2.5 mi WNW 27.6 mph 41.4 mph 0.00 in   Mostly Cloudy
6:05 AM 25.0 °F 7.6 °F 21.9 °F 88% 29.41 in 2.0 mi WNW 32.2 mph 46.0 mph 0.00 in   Mostly Cloudy
6:15 AM 25.0 °F 6.9 °F 21.9 °F 88% 29.42 in 1.2 mi WNW 35.7 mph 47.2 mph 0.00 in Snow Blowing Snow
6:53 AM 25.0 °F 8.6 °F 21.0 °F 85% 29.49 in 3.0 mi WNW 27.6 mph 41.4 mph 0.00 in Snow Blowing Snow
7:26 AM 25.0 °F 7.6 °F 21.0 °F 85% 29.43 in 1.8 mi NW 32.2 mph 41.4 mph 0.00 in Snow Blowing Snow
7:43 AM 25.0 °F 8.1 °F 21.0 °F 85% 29.45 in 1.8 mi WNW 29.9 mph 39.1 mph 0.00 in   Mist
7:54 AM 25.0 °F 8.6 °F 21.0 °F 85% 29.52 in 1.2 mi WNW 27.6 mph 41.4 mph 0.00 in Snow Blowing Snow
8:22 AM 24.1 °F 7.4 °F 19.9 °F 84% 29.48 in 2.5 mi NW 27.6 mph 42.6 mph 0.01 in Snow Blowing Snow
8:53 AM 24.1 °F 8.7 °F 19.9 °F 84% 29.53 in 9.0 mi WNW 23.0 mph - 0.01 in   Unknown
9:05 AM 24.1 °F 9.0 °F 19.9 °F 84% 29.47 in 10.0 mi WNW 21.9 mph - N/A   Overcast
9:42 AM 24.1 °F 8.0 °F 19.9 °F 84% 29.45 in 10.0 mi WNW 25.3 mph 31.1 mph N/A   Scattered Clouds
9:53 AM 24.1 °F 7.4 °F 19.0 °F 81% 29.51 in 9.0 mi WNW 27.6 mph - N/A   Partly Cloudy
10:39 AM 24.1 °F 9.8 °F 19.0 °F 81% 29.49 in 10.0 mi WNW 19.6 mph - 0.00 in   Mostly Cloudy
10:53 AM 25.0 °F 10.2 °F 19.9 °F 81% 29.53 in 10.0 mi WNW 21.9 mph - 0.00 in   Mostly Cloudy
11:00 AM 25.0 °F 10.6 °F 19.9 °F 81% 29.48 in 10.0 mi WNW 20.7 mph - N/A   Overcast
11:53 AM 26.1 °F 11.0 °F 19.0 °F 75% 29.53 in 5.0 mi WNW 24.2 mph 35.7 mph N/A   Haze
12:53 PM 23.0 °F 6.9 °F 16.0 °F 74% 29.54 in 6.0 mi WNW 24.2 mph 31.1 mph N/A   Haze
1:53 PM 23.0 °F 9.6 °F 16.0 °F 74% 29.54 in 5.0 mi WNW 16.1 mph - 0.00 in Snow Light Snow
2:12 PM 23.0 °F 10.1 °F 18.0 °F 81% 29.50 in 2.0 mi WNW 15.0 mph - 0.00 in Snow Light Snow
2:17 PM 23.0 °F 9.2 °F 18.0 °F 81% 29.50 in 0.8 mi WNW 17.3 mph - 0.00 in Snow Light Snow
2:53 PM 21.0 °F 3.6 °F 18.0 °F 88% 29.57 in 0.5 mi NW 26.5 mph 33.4 mph 0.00 in Fog , Snow Light Snow
3:13 PM 19.9 °F 0.4 °F 17.1 °F 89% 29.56 in 0.2 mi NNW 33.4 mph 40.3 mph 0.00 in Fog , Snow Light Snow
3:40 PM 15.1 °F -5.3 °F 10.9 °F 84% 29.60 in 0.2 mi NNW 29.9 mph 41.4 mph 0.02 in Fog , Snow Light Freezing Fog
3:51 PM 14.0 °F -8.8 °F 10.4 °F 86% 29.62 in 0.2 mi NNW 38.0 mph 44.9 mph 0.03 in Fog , Snow Light Snow
3:53 PM 14.0 °F -9.3 °F 10.0 °F 84% 29.67 in 0.2 mi NNW 40.3 mph 46.0 mph 0.03 in Fog , Snow Snow
4:04 PM 12.9 °F -8.9 °F 10.0 °F 88% 29.64 in 0.2 mi NNW 32.2 mph 47.2 mph 0.01 in Fog Light Freezing Fog
4:12 PM 10.9 °F -11.6 °F 7.0 °F 84% 29.66 in 0.2 mi NNW 32.2 mph 40.3 mph 0.01 in Fog Light Freezing Fog
4:25 PM 10.0 °F -14.6 °F 6.1 °F 84% 29.68 in 0.2 mi NNW 39.1 mph 50.6 mph 0.02 in Fog Light Freezing Fog
4:44 PM 10.0 °F -11.1 °F 7.0 °F 87% 29.70 in 0.5 mi NW 26.5 mph 39.1 mph 0.03 in Fog Light Freezing Fog
4:53 PM 10.0 °F -13.4 °F 6.1 °F 84% 29.75 in 0.2 mi NW 34.5 mph 47.2 mph 0.03 in Fog Light Freezing Fog
5:14 PM 8.1 °F -17.6 °F 5.0 °F 87% 29.74 in 0.2 mi NW 40.3 mph 49.5 mph N/A Fog Light Freezing Fog
5:43 PM 6.1 °F -18.9 °F 1.9 °F 83% 29.77 in 0.5 mi NW 34.5 mph 47.2 mph N/A Fog Light Freezing Fog
5:53 PM 3.9 °F -21.9 °F 1.0 °F 88% 29.84 in - NW 34.5 mph 46.0 mph N/A   Unknown
6:16 PM 3.9 °F -22.8 °F -0.0 °F 84% 29.80 in 0.5 mi NW 38.0 mph 50.6 mph N/A Fog Light Freezing Fog
6:29 PM 3.0 °F -25.4 °F -0.0 °F 87% 29.82 in 0.2 mi NW 43.7 mph 54.1 mph N/A Fog Light Freezing Fog
6:36 PM 1.9 °F -27.2 °F -2.0 °F 83% 29.84 in 0.2 mi NW 44.9 mph 56.4 mph N/A Fog Light Freezing Fog
6:53 PM 1.0 °F -26.1 °F -2.9 °F 83% 29.91 in 0.5 mi NW 35.7 mph 52.9 mph 0.00 in Fog , Snow Light Snow
7:04 PM 1.0 °F -26.8 °F -2.9 °F 83% 29.86 in 0.8 mi NW 38.0 mph 44.9 mph 0.00 in Snow Blowing Snow
7:20 PM -0.0 °F -29.2 °F -4.0 °F 83% 29.88 in 0.5 mi NW 41.4 mph 56.4 mph 0.00 in Fog , Snow Light Snow
7:53 PM -0.0 °F -28.0 °F -5.1 °F 79% 29.97 in 0.8 mi NW 36.8 mph 54.1 mph 0.00 in Snow Light Snow
8:16 PM -0.0 °F -26.3 °F -5.1 °F 79% 29.93 in 1.8 mi NW 31.1 mph 49.5 mph 0.00 in Snow Light Snow
8:29 PM -0.0 °F -29.2 °F -4.0 °F 83% 29.94 in 0.2 mi NW 41.4 mph 52.9 mph 0.00 in Fog , Snow Light Snow
8:34 PM -0.9 °F -31.0 °F -5.1 °F 83% 29.94 in 0.2 mi NW 43.7 mph 57.5 mph 0.00 in Fog , Snow Light Snow
8:53 PM -0.9 °F -28.2 °F -5.1 °F 83% 30.02 in 0.8 mi NW 33.4 mph 44.9 mph 0.00 in Snow Light Snow
9:26 PM -0.9 °F -29.2 °F -6.0 °F 79% 29.99 in 0.5 mi NW 36.8 mph 47.2 mph 0.00 in Snow Snow
9:41 PM -0.9 °F -27.8 °F -5.1 °F 83% 30.01 in 0.2 mi NW 32.2 mph 46.0 mph 0.00 in Fog , Snow Snow
9:54 PM -2.0 °F -26.0 °F -5.1 °F 87% 30.07 in - NW 23.0 mph 36.8 mph 0.00 in Snow Light Snow
10:00 PM -2.0 °F -30.0 °F -6.0 °F 83% 30.02 in 0.2 mi NW 34.5 mph 40.3 mph 0.02 in Fog , Snow Light Snow
10:22 PM -2.0 °F -30.4 °F -6.0 °F 83% 30.03 in 0.2 mi NW 35.7 mph 50.6 mph 0.02 in Fog , Snow Light Snow
10:53 PM -2.9 °F -32.3 °F -7.1 °F 82% 30.11 in 0.2 mi NW 38.0 mph 47.2 mph 0.02 in Fog , Snow Light Snow
11:17 PM -4.0 °F -32.4 °F -8.0 °F 83% 30.08 in 0.5 mi NW 33.4 mph 47.2 mph 0.00 in Fog Light Freezing Fog
11:29 PM -4.0 °F -32.4 °F -9.0 °F 79% 30.09 in 1.0 mi NW 33.4 mph 41.4 mph 0.00 in   Unknown
11:37 PM -4.0 °F -31.6 °F -9.9 °F 76% 30.09 in 1.5 mi NW 31.1 mph 40.3 mph 0.00 in   Overcast
11:45 PM -5.1 °F -33.9 °F -11.0 °F 76% 30.10 in 2.0 mi NW 33.4 mph 43.7 mph 0.00 in   Overcast
11:53 PM -5.1 °F -33.5 °F -11.0 °F 76% 30.17 in 2.5 mi NW 32.2 mph 43.7 mph 0.00 in   Mostly Cloudy